Regional Weather Roundup
Issued by NWS Green Bay, WI

Home | Current Version | Previous Version | Graphics & Text | Print | Product List | Glossary Off
Versions: 1 2 3 4 5 6 7 8 9 10 11 12 13 14 15 16 17 18 19 20 21 22 23 24 25 26 27 28 29 30 31 32 33 34 35 36 37 38 39 40 41 42 43 44 45 46 47 48 49 50

000
ASUS43 KGRB 182259
RWRGRB

NORTH-CENTRAL AND NORTHEAST WISCONSIN REGIONAL WEATHER ROUNDUP
NATIONAL WEATHER SERVICE GREEN BAY WI
600 PM CDT THU SEP 18 2014

WIZ005-009-010>012-018-019-190000-
NORTH CENTRAL WISCONSIN

CITY           SKY/WX    TMP DP  RH WIND       PRES   REMARKS
IRONWOOD       CLOUDY    55  48  76 SE6       30.06F
MANITOWISH WTR NOT AVBL
ARBOR VITAE    NOT AVBL
EAGLE RIVER    NOT AVBL
LAND O LAKES   NOT AVBL
RHINELANDER    SUNNY     56  47  71 S7        30.12F
PHILLIPS       NOT AVBL
ANTIGO         NOT AVBL
TOMAHAWK       NOT AVBL
MERRILL        NOT AVBL
$$

WIZ013-073-190000-
NORTHEAST WISCONSIN

CITY           SKY/WX    TMP DP  RH WIND       PRES   REMARKS
IRON MOUNTAIN  CLOUDY    55  43  63 S6        30.13S
MARINETTE      MOCLDY    54  43  66 E6        30.15S
$$

WIZ017-030-035>037-045-190000-
CENTRAL WISCONSIN

CITY           SKY/WX    TMP DP  RH WIND       PRES   REMARKS
MEDFORD        NOT AVBL
WAUSAU         SUNNY     57  48  72 S6        30.11F
MOSINEE        SUNNY     55  50  82 SE5       30.13F
MARSHFIELD     SUNNY     57  49  74 SE8       30.11S
WISC RAPIDS    SUNNY     61  50  67 E6        30.13S
STEVENS POINT  NOT AVBL
WAUPACA        NOT AVBL
SHAWANO        CLEAR     56  47  71 E3        30.15S
CLINTONVILLE   CLEAR     55  46  71 E5        30.14S
$$

WIZ038-039-048-051-190000-
FOX VALLEY

CITY           SKY/WX    TMP DP  RH WIND       PRES   REMARKS
NWS GREEN BAY  MOCLDY    57  48  72 NE3       30.15S
APPLETON       MOCLDY    59  46  63 VRB3      30.14F
OSHKOSH        CLEAR     59  51  75 NE5       30.13F
FOND DU LAC    CLEAR     59  51  75 NE7       30.13F
$$

WIZ022-050-052-190000-
EAST CENTRAL WISCONSIN

CITY           SKY/WX    TMP DP  RH WIND       PRES   REMARKS
STURGEON BAY   CLEAR     52  45  76 SE7       30.16S
MANITOWOC      NOT AVBL
SHEBOYGAN      CLEAR     55  47  74 E7        30.15S
$$

LMZ563-521-522-541>543-190000-
LAKESHORE

STATION/POSITION TIME  TEMP    WIND        PRES    VSBY  WAVE
                       AIR SEA DIR/SP/G                  HT/PER
                 (UTC) (F)     (DEG/KT/KT) (MB)    (MI)  (FT/S)
SHEBOYGAN LKSHOR 2200   52 49   40/ 10/ 10 1021.6F
KEWAUNEE LKSHORE 2200   54      90/  4/  5 1020.4S
NORTHPORT PIER   2200   55     100/  3/  7 1021.7S
N MID LAKE BUOY  2200   52 59   50/  4/  4 1021.9F         1
S GREEN BAY BUOY 2200   54     VRB  8/ 10  1021.9F
CHAMBERS ISLAND  2200   53      30/  5/  8 1021.3F
MENOMINEE LKSHOR 2200   53      40/  6/  7 1021.5F
$$


USA.gov is the U.S. government's official web portal to all federal, state and local government web resources and services.